GalileoSat-27

operational
NORAD ID: 49809 Int'l Des: 2021-116 Owner: EUSPA Country: I-EU Constellation: Galileo
MEOCIRCULAR

Über GalileoSat-27

Beschreibung wird geladen...

Live-Position

3D-Globus wird geladen...

Nächste Überflüge

Höhenverlauf

Altitude vs Time

uPlot chart will show altitude changes over time

Zweizeiliger Elementsatz

1 49809U 21116A 25297.76970373 -.00000079 00000-0 00000+0 0 9994
2 49809 57.2309 348.0382 0004479 230.6828 128.3505 1.70476452 24162
Epoch: 24. Okt. 2025 • Age: 45 hours

Aktueller Status

Höhe 23240.4 km
Geschwindigkeit 3.67 km/s
Subsatellitenpunkt 44.92°N, 127.97°E
Startdatum 5. Dez. 2021
Alter 3.8 years
Typ navigation

Technische Details

Klassifizierung Payload
Masse 733.00 kg
Trockenmasse 660.00 kg
Gesamtmasse 733.00 kg
Länge 2.70 m
Durchmesser 1.60 m
Spannweite 14.50 m
Form Box+2 pan
Hersteller OHB
Bus-Typ Galileo
Phasenstatus In Orbit
Besitzer/Staat EUSPA/I-EU

Große Konstellationen

Loading constellations...